{"data":{"norad_id":60946,"epoch":"2026-09-22T18:55:09.125184Z","epoch_age_seconds":93910,"freshness":"FRESH","line1":"1 60946U 24156B   26265.78830006  .00006228  00000+0  25922-3 0  9996","line2":"2 60946  34.9955 304.1780 0001119 260.1875  99.8713 15.23082238114339","mean_motion":15.23082238,"eccentricity":0.0001119,"inclination_deg":34.9955,"raan_deg":304.178,"arg_perigee_deg":260.1875,"mean_anomaly_deg":99.8713,"bstar":0.00025922,"rev_number":11433,"period_min":94.54512462117,"perigee_km":495.78086821158,"apogee_km":497.31942319479,"semimajor_km":6874.6871457032,"source":"CELESTRAK","updated_at":"2026-09-23T09:00:20.757620Z"}}